Terminal Aerodrome Forecast
Issued by NWS Detroit/Pontiac, MI

Home | Current Version | Previous Version | Text Only | Print | Product List | Glossary On
Versions: 1 2 3 4 5 6 7 8 9 10 11 12 13 14 15 16 17 18 19 20 21 22 23 24 25 26 27 28 29 30
000
FTUS43 KDTX 212332
TAFDTW
TAF
KDTW 212332Z 2200/2306 17009KT P6SM FEW150
     FM220400 18008KT P6SM BKN150
     FM220800 19009KT P6SM SCT025 OVC040
     FM221000 19011KT P6SM OVC026 WS015/22045KT PROB30 2210/2212 4SM
      -FZRA OVC018
     FM221400 21012KT 4SM -RA BR SCT008 OVC014 WS015/22045KT
     FM221800 22014G24KT 5SM -RA BR OVC012 WS020/24045KT
     FM230000 22012KT 4SM -RA BR OVC012 WS020/24045KT=

USA.gov is the U.S. government's official web portal to all federal, state and local government web resources and services.